Weather History for Frederick, MD

Change the Weather History Date:

Wednesday, January 15, 2014

  Actual Average (KHGR) Record (KHGR)
Temperature  
Mean Temperature 38 °F -  
Max Temperature 46 °F 33 °F 57 °F (2007)
Min Temperature 30 °F 21 °F 10 °F (2004)
Degree Days  
Heating Degree Days 27    
Moisture  
Dew Point 33 °F    
Average Humidity 92    
Maximum Humidity 100    
Minimum Humidity 57    
Precipitation  
Precipitation 0.01 in - - ()
Sea Level Pressure  
Sea Level Pressure 29.96 in    
Wind  
Wind Speed 2 mph (NW)    
Max Wind Speed 13 mph    
Max Gust Speed -    
Visibility 5 miles    
Events Fog , Rain    
Averages and records for this station are not official NWS values.
T = Trace of Precipitation, MM = Missing Value Source: NWS Daily Summary

Daily Weather History Graph

Daily Weather History Graph

Search for Another Location

Airport:

Trip Planner

Search our weather history database for the weather conditions in past years. The results will help you decide how hot, cold, wet, or windy it might be!

Date:

Astronomy

Jan. 15, 2014 Rise Set
Actual Time 7:27 AM EST 5:10 PM EST
Civil Twilight 6:58 AM EST 5:39 PM EST
Nautical Twilight 6:25 AM EST 6:12 PM EST
Astronomical Twilight 5:53 AM EST 6:45 PM EST
Moon 5:05 PM EST (1/15) 6:42 AM EST (1/15)
Length of Visible Light 10h 41m
Length of Day
9h 42m
Full, 100% of the Moon is Illuminated
Jan 15
Full
Jan 15
Full
Jan 24
Last Quarter
Jan 30
New
Feb 6
First Quarter

Hourly Weather History & Observations

Time (EST) Temp. Windchill Dew Point Humidity Pressure Visibility Wind Dir Wind Speed Gust Speed Precip Events Conditions
12:05 AM 30.2 °F - 30.2 °F 100% 29.93 in 0.5 mi Calm Calm - N/A Fog Light Freezing Fog
12:25 AM 30.2 °F - 30.2 °F 100% 29.93 in 0.5 mi Calm Calm - N/A Fog Light Freezing Fog
12:45 AM 30.2 °F - 30.2 °F 100% 29.93 in 0.5 mi Calm Calm - N/A Fog Light Freezing Fog
1:05 AM 32.0 °F - 32.0 °F 100% 29.94 in 0.2 mi Calm Calm - N/A Fog Light Freezing Fog
1:25 AM 32.0 °F - 32.0 °F 100% 29.93 in 0.2 mi Calm Calm - N/A Fog Light Freezing Fog
1:45 AM 32.0 °F - 32.0 °F 100% 29.93 in 0.2 mi Calm Calm - N/A Fog Fog
2:05 AM 32.0 °F - 32.0 °F 100% 29.94 in 0.2 mi Calm Calm - N/A Fog Fog
2:25 AM 32.0 °F - 32.0 °F 100% 29.94 in 0.2 mi Calm Calm - N/A Fog Fog
2:45 AM 32.0 °F 28.7 °F 32.0 °F 100% 29.95 in 0.2 mi South 3.5 mph - N/A Fog Fog
3:05 AM 32.0 °F 27.5 °F 32.0 °F 100% 29.94 in 0.2 mi South 4.6 mph - N/A Fog Fog
3:25 AM 32.0 °F 27.5 °F 32.0 °F 100% 29.95 in 0.2 mi SSW 4.6 mph - N/A Fog Fog
3:45 AM 32.0 °F 28.7 °F 32.0 °F 100% 29.96 in 0.2 mi SSW 3.5 mph - 0.01 in Fog Fog
4:05 AM 32.0 °F 28.7 °F 32.0 °F 100% 29.96 in 0.2 mi South 3.5 mph - N/A Fog Fog
4:25 AM 32.0 °F - 32.0 °F 100% 29.95 in 0.2 mi Calm Calm - N/A Fog Fog
4:45 AM 32.0 °F 28.7 °F 32.0 °F 100% 29.95 in 0.5 mi SSE 3.5 mph - N/A Fog Fog
5:05 AM 32.0 °F - 32.0 °F 100% 29.95 in 0.5 mi Calm Calm - N/A Fog Fog
5:25 AM 32.0 °F - 32.0 °F 100% 29.94 in 0.2 mi Calm Calm - N/A Fog Fog
5:40 AM 32.0 °F - 32.0 °F 100% 29.94 in 0.2 mi Calm Calm - N/A Fog Fog
6:47 AM 33.8 °F - 33.8 °F 100% 29.94 in 0.5 mi Calm Calm - N/A Fog Fog
7:45 AM 33.8 °F 30.8 °F 33.8 °F 100% 29.97 in 0.2 mi WSW 3.5 mph - N/A Fog Fog
8:45 AM 33.8 °F 29.6 °F 33.8 °F 100% 29.99 in 0.2 mi SW 4.6 mph - N/A Fog Fog
9:45 AM 35.6 °F 31.7 °F 35.6 °F 100% 29.99 in 0.2 mi SSW 4.6 mph - N/A Fog Fog
10:47 AM 37.4 °F - 37.4 °F 100% 29.98 in 2.0 mi Calm Calm - N/A   Overcast
11:45 AM 39.2 °F 35.9 °F 39.2 °F 100% 29.96 in 3.0 mi West 4.6 mph - N/A   Overcast
12:45 PM 39.2 °F - 39.2 °F 100% 29.92 in 5.0 mi Calm Calm - N/A   Mostly Cloudy
1:03 PM 41.0 °F - 41.0 °F 100% 29.92 in 5.0 mi Calm Calm - N/A   Scattered Clouds
1:45 PM 42.8 °F - 42.8 °F 100% 29.92 in 10.0 mi Calm Calm - N/A   Partly Cloudy
2:45 PM - - - N/A% 29.92 in 10.0 mi Calm Calm - N/A   Partly Cloudy
3:45 PM 44.6 °F - 39.2 °F 81% 29.93 in 10.0 mi Calm Calm - N/A   Mostly Cloudy
4:45 PM 44.6 °F 38.4 °F 32.0 °F 61% 29.95 in 10.0 mi NNW 12.7 mph - N/A   Overcast
5:45 PM 46.4 °F 41.5 °F 32.0 °F 57% 29.97 in 10.0 mi NW 10.4 mph - N/A   Overcast
7:00 PM 39.2 °F 33.6 °F 32.0 °F 75% 29.98 in 10.0 mi North 8.1 mph - N/A   Overcast
7:45 PM 37.4 °F 32.8 °F 32.0 °F 81% 29.98 in 10.0 mi NNW 5.8 mph - N/A   Overcast
7:50 PM 39.2 °F 35.0 °F 30.2 °F 70% 29.98 in 10.0 mi NNW 5.8 mph - N/A   Overcast
8:05 PM 37.4 °F 33.8 °F 32.0 °F 81% 29.98 in 10.0 mi NNW 4.6 mph - N/A   Overcast
8:25 PM 37.4 °F 33.8 °F 32.0 °F 81% 29.98 in 10.0 mi NNW 4.6 mph - N/A   Overcast
8:45 PM 37.4 °F 31.4 °F 32.0 °F 81% 29.98 in 10.0 mi NNW 8.1 mph - N/A   Overcast
9:05 PM 37.4 °F 32.8 °F 32.0 °F 81% 29.99 in 10.0 mi NNW 5.8 mph - N/A   Overcast
9:25 PM 37.4 °F 34.9 °F 32.0 °F 81% 29.99 in 10.0 mi North 3.5 mph - N/A   Overcast
9:45 PM 37.4 °F - 32.0 °F 81% 30.00 in 10.0 mi Calm Calm - N/A   Overcast
10:05 PM 35.6 °F 28.6 °F 32.0 °F 87% 30.00 in 10.0 mi NW 9.2 mph - N/A Rain Light Rain
10:25 PM 35.6 °F - 33.8 °F 93% 30.01 in 10.0 mi Calm Calm - N/A   Overcast
10:45 PM 35.6 °F 30.7 °F 33.8 °F 93% 29.99 in 10.0 mi North 5.8 mph - N/A   Overcast
11:05 PM 35.6 °F 31.7 °F 32.0 °F 87% 29.99 in 10.0 mi North 4.6 mph - N/A   Overcast
11:25 PM 35.6 °F 31.7 °F 32.0 °F 87% 29.99 in 10.0 mi NNW 4.6 mph - N/A   Overcast
11:45 PM 35.6 °F 30.7 °F 32.0 °F 87% 29.98 in 10.0 mi North 5.8 mph - N/A   Overcast